| time (UTC) | temp C | wind direction | speed KPH | gust KPH | rain 1hr cm | rain 24hr cm | rain mn cm | humidity % | barometer mb |
| 20260506034542 | 20 | 61 | 9.7 | 22.5 | 0.00 | 0.03 | 0.03 | 85 | 1026.0 |
| 20260506033039 | 20 | 154 | 6.4 | 20.9 | 0.00 | 0.03 | 0.03 | 84 | 1026.1 |
| 20260506031553 | 20 | 70 | 11.3 | 22.5 | 0.00 | 0.03 | 0.03 | 83 | 1026.1 |
| 20260506030046 | 20 | 88 | 12.9 | 22.5 | 0.00 | 0.03 | 0.03 | 84 | 1026.1 |
| 20260506024544 | 20 | 4 | 11.3 | 25.7 | 0.00 | 0.03 | 0.03 | 83 | 1026.1 |
| 20260506023043 | 20 | 313 | 8.0 | 20.9 | 0.00 | 0.03 | 0.03 | 83 | 1026.1 |
| 20260506021541 | 20 | 273 | 9.7 | 25.7 | 0.00 | 0.03 | 0.03 | 83 | 1026.0 |
| 20260506020038 | 20 | 44 | 9.7 | 25.7 | 0.00 | 0.03 | 0.03 | 84 | 1026.1 |
| 20260506014536 | 19 | 153 | 8.0 | 24.1 | 0.00 | 0.03 | 0.03 | 87 | 1026.1 |
| 20260506013046 | 20 | 86 | 8.0 | 22.5 | 0.00 | 0.03 | 0.03 | 87 | 1026.2 |
| 20260506011541 | 20 | 51 | 6.4 | 17.7 | 0.00 | 0.03 | 0.03 | 85 | 1026.3 |
| 20260506010040 | 20 | 71 | 12.9 | 22.5 | 0.00 | 0.03 | 0.03 | 84 | 1026.4 |
| 20260506004604 | 20 | 166 | 8.0 | 19.3 | 0.00 | 0.03 | 0.03 | 83 | 1026.4 |
| 20260506003035 | 20 | 331 | 9.7 | 24.1 | 0.00 | 0.03 | 0.03 | 84 | 1026.7 |
| 20260506001541 | 20 | 63 | 8.0 | 25.7 | 0.00 | 0.03 | 0.03 | 83 | 1026.9 |
| 20260506000044 | 20 | 77 | 16.1 | 25.7 | 0.00 | 0.03 | 0.03 | 83 | 1026.9 |
| 20260505234604 | 20 | 124 | 9.7 | 25.7 | 0.00 | 0.03 | 0.03 | 84 | 1027.0 |
| 20260505233041 | 20 | 71 | 14.5 | 24.1 | 0.00 | 0.03 | 0.03 | 84 | 1026.9 |
| 20260505231536 | 20 | 78 | 12.9 | 29.0 | 0.00 | 0.03 | 0.03 | 84 | 1027.1 |
| 20260505230042 | 20 | 79 | 12.9 | 27.4 | 0.00 | 0.03 | 0.03 | 83 | 1027.2 |
| 20260505224536 | 20 | 113 | 12.9 | 25.7 | 0.00 | 0.03 | 0.03 | 83 | 1027.1 |
| 20260505223052 | 20 | 84 | 12.9 | 25.7 | 0.00 | 0.03 | 0.03 | 85 | 1027.2 |
| 20260505221616 | 19 | 65 | 12.9 | 24.1 | 0.00 | 0.03 | 0.03 | 86 | 1027.2 |
| 20260505220057 | 19 | 359 | 6.4 | 24.1 | 0.00 | 0.03 | 0.03 | 86 | 1027.3 |
| 20260505214552 | 19 | 80 | 11.3 | 22.5 | 0.00 | 0.03 | 0.03 | 86 | 1027.5 |
| 20260505213043 | 19 | 70 | 11.3 | 20.9 | 0.00 | 0.03 | 0.03 | 87 | 1027.6 |
| 20260505211536 | 19 | 36 | 6.4 | 16.1 | 0.00 | 0.03 | 0.03 | 86 | 1027.9 |
| 20260505210043 | 19 | 73 | 6.4 | 14.5 | 0.03 | 0.03 | 0.03 | 87 | 1028.0 |
| 20260505204535 | 18 | 264 | 4.8 | 14.5 | 0.03 | 0.03 | 0.03 | 89 | 1027.8 |
| 20260505203039 | 18 | 340 | 6.4 | 17.7 | 0.03 | 0.03 | 0.03 | 90 | 1027.7 |
| 20260505201541 | 18 | 49 | 6.4 | 14.5 | 0.00 | 0.00 | 0.00 | 89 | 1027.5 |
| 20260505200058 | 18 | 82 | 4.8 | 14.5 | 0.00 | 0.00 | 0.00 | 88 | 1027.5 |
| 20260505194543 | 18 | 338 | 6.4 | 9.7 | 0.00 | 0.00 | 0.00 | 90 | 1027.3 |
| 20260505193042 | 18 | 53 | 4.8 | 12.9 | 0.00 | 0.00 | 0.00 | 90 | 1027.2 |
| 20260505191541 | 18 | 56 | 4.8 | 9.7 | 0.00 | 0.00 | 0.00 | 90 | 1027.2 |
| 20260505190047 | 18 | 5 | 4.8 | 11.3 | 0.00 | 0.00 | 0.00 | 91 | 1027.1 |
| 20260505184539 | 18 | 51 | 6.4 | 16.1 | 0.00 | 0.00 | 0.00 | 91 | 1027.0 |
| 20260505183048 | 18 | 31 | 8.0 | 22.5 | 0.00 | 0.00 | 0.00 | 90 | 1027.0 |
| 20260505181541 | 18 | 68 | 11.3 | 17.7 | 0.00 | 0.00 | 0.00 | 90 | 1027.0 |
| 20260505180044 | 18 | 62 | 8.0 | 20.9 | 0.00 | 0.00 | 0.00 | 89 | 1026.9 |
| 20260505174537 | 18 | 127 | 8.0 | 16.1 | 0.00 | 0.00 | 0.00 | 90 | 1027.1 |
| 20260505173043 | 17 | 91 | 4.8 | 17.7 | 0.00 | 0.00 | 0.00 | 89 | 1026.9 |
| 20260505171543 | 17 | 326 | 4.8 | 12.9 | 0.00 | 0.00 | 0.00 | 89 | 1027.0 |
| 20260505170043 | 17 | 69 | 8.0 | 19.3 | 0.00 | 0.00 | 0.00 | 89 | 1027.0 |
| 20260505164542 | 17 | 72 | 9.7 | 19.3 | 0.00 | 0.00 | 0.00 | 90 | 1027.1 |
| 20260505163037 | 18 | 349 | 9.7 | 19.3 | 0.00 | 0.00 | 0.00 | 90 | 1027.0 |
| 20260505161540 | 18 | 55 | 9.7 | 17.7 | 0.00 | 0.00 | 0.00 | 90 | 1027.1 |
| 20260505153047 | 18 | 304 | 8.0 | 17.7 | 0.00 | 0.00 | 0.00 | 87 | 1027.3 |
| 20260505151544 | 18 | 37 | 6.4 | 16.1 | 0.00 | 0.00 | 0.00 | 86 | 1027.4 |
| 20260505124548 | 18 | 340 | 8.0 | 24.1 | 0.00 | 0.00 | 0.00 | 87 | 1028.4 |
| 20260505123040 | 18 | 352 | 11.3 | 20.9 | 0.00 | 0.00 | 0.00 | 88 | 1028.4 |
| 20260505121541 | 18 | 86 | 6.4 | 20.9 | 0.00 | 0.00 | 0.00 | 87 | 1028.3 |
| 20260505120049 | 18 | 77 | 9.7 | 20.9 | 0.00 | 0.00 | 0.00 | 87 | 1028.4 |
| 20260505114545 | 18 | 102 | 12.9 | 20.9 | 0.00 | 0.00 | 0.00 | 87 | 1028.4 |
| 20260505113041 | 18 | 86 | 12.9 | 22.5 | 0.00 | 0.00 | 0.00 | 87 | 1028.4 |
| 20260505111538 | 18 | 104 | 14.5 | 22.5 | 0.00 | 0.00 | 0.00 | 88 | 1028.5 |
| 20260505101544 | 18 | 92 | 14.5 | 25.7 | 0.00 | 0.00 | 0.00 | 87 | 1028.9 |
| 20260505100040 | 18 | 41 | 11.3 | 25.7 | 0.00 | 0.00 | 0.00 | 87 | 1028.9 |
| 20260505094537 | 18 | 53 | 16.1 | 29.0 | 0.00 | 0.00 | 0.00 | 88 | 1029.0 |
| 20260505093040 | 18 | 59 | 14.5 | 22.5 | 0.00 | 0.00 | 0.00 | 88 | 1028.7 |
| 20260505091538 | 18 | 69 | 11.3 | 25.7 | 0.00 | 0.00 | 0.00 | 88 | 1028.9 |
| 20260505090042 | 18 | 98 | 14.5 | 27.4 | 0.00 | 0.00 | 0.00 | 87 | 1028.7 |
| 20260505084545 | 18 | 348 | 14.5 | 24.1 | 0.00 | 0.00 | 0.00 | 86 | 1028.8 |
| 20260505083040 | 18 | 51 | 11.3 | 19.3 | 0.00 | 0.00 | 0.00 | 86 | 1028.8 |
| 20260505081537 | 18 | 34 | 12.9 | 22.5 | 0.00 | 0.00 | 0.00 | 83 | 1028.8 |
| 20260505080046 | 18 | 7 | 12.9 | 20.9 | 0.00 | 0.00 | 0.00 | 83 | 1028.8 |
| 20260505074542 | 18 | 10 | 8.0 | 30.6 | 0.00 | 0.00 | 0.00 | 83 | 1028.8 |
| 20260505073044 | 18 | 75 | 14.5 | 25.7 | 0.00 | 0.00 | 0.00 | 85 | 1028.6 |
| 20260505071540 | 18 | 13 | 9.7 | 29.0 | 0.00 | 0.00 | 0.00 | 87 | 1028.5 |
| 20260505070050 | 18 | 61 | 16.1 | 32.2 | 0.00 | 0.00 | 0.00 | 87 | 1028.4 |
| 20260505064536 | 18 | 53 | 12.9 | 27.4 | 0.00 | 0.00 | 0.00 | 87 | 1028.3 |
| 20260505063035 | 18 | 48 | 9.7 | 24.1 | 0.00 | 0.00 | 0.00 | 87 | 1028.3 |
| 20260505061543 | 18 | 60 | 16.1 | 27.4 | 0.00 | 0.00 | 0.00 | 87 | 1028.3 |
| 20260505060042 | 18 | 51 | 12.9 | 24.1 | 0.00 | 0.00 | 0.00 | 91 | 1028.2 |
| 20260505054541 | 18 | 135 | 4.8 | 9.7 | 0.00 | 0.00 | 0.00 | 91 | 1028.2 |
| 20260505053036 | 18 | 134 | 4.8 | 12.9 | 0.00 | 0.00 | 0.00 | 90 | 1028.2 |
| 20260505051536 | 18 | 149 | 4.8 | 12.9 | 0.00 | 0.00 | 0.00 | 89 | 1028.2 |
| 20260505041550 | 18 | 143 | 6.4 | 12.9 | 0.00 | 0.00 | 0.00 | 84 | 1028.3 |
| 20260505040048 | 19 | 49 | 4.8 | 16.1 | 0.00 | 0.00 | 0.00 | 82 | 1028.3 |